Location: Columbus
(29.5618°N, 96.6770°W)
Time: 11:44:52
(UTC-05:00)

Iridium 59 - Visible Passes

Search period start: 25 August 2016 00:00
Search period end: 04 September 2016 00:00
Orbit: 776 x 779 km, 86.4° (Epoch: 25 August)

Date Brightness Start Highest point End Pass type
(mag) Time Alt. Az. Time Alt. Az. Time Alt. Az.
25 Aug 8.1 05:21:53 10° ESE 05:24:00 12° E 05:26:08 10° ENE visible
26 Aug 5.3 06:25:27 10° S 06:30:38 78° E 06:35:52 10° N visible
27 Aug 6.6 05:52:27 10° SSE 05:57:14 38° E 06:02:02 10° NNE visible
28 Aug 7.7 05:20:18 10° SE 05:23:56 19° E 05:27:34 10° NE visible
29 Aug 5.0 06:25:34 10° S 06:30:44 69° W 06:35:56 10° N visible
30 Aug 5.7 05:52:10 10° SSE 05:57:16 59° E 06:02:23 10° N visible
31 Aug 7.0 05:19:28 10° SE 05:23:54 29° E 05:28:20 10° NNE visible
01 Sep 7.9 04:47:51 10° ESE 04:50:38 15° E 04:53:25 10° NE visible
01 Sep 5.3 06:25:56 10° SSW 06:30:52 44° W 06:35:51 10° NNW visible
02 Sep 5.0 05:52:08 10° S 05:57:20 90° SSE 06:02:34 10° N visible
03 Sep 6.1 05:19:00 10° SSE 05:23:54 44° E 05:28:50 10° NNE visible
